TimeCST,TemperatureF,Dew PointF,Humidity,Sea Level PressureIn,VisibilityMPH,Wind Direction,Wind SpeedMPH,Gust SpeedMPH,PrecipitationIn,Events,Conditions,WindDirDegrees,DateUTC
12:49 AM,26.6,24.8,93,29.54,3.0,NW,21.9,27.6,0.01,Snow,Blowing Snow,310,2012-11-11 06:49:00
12:53 AM,26.1,23.0,88,29.58,3.0,NW,17.3,27.6,0.01,Snow,Blowing Snow,320,2012-11-11 06:53:00
1:53 AM,26.1,23.0,88,29.60,10.0,NW,17.3,23.0,N/A,,Overcast,310,2012-11-11 07:53:00
2:32 AM,26.6,23.0,86,29.57,10.0,WNW,12.7,20.7,N/A,,Overcast,300,2012-11-11 08:32:00
2:53 AM,26.1,21.9,84,29.60,10.0,WNW,15.0,-,N/A,,Overcast,300,2012-11-11 08:53:00
3:10 AM,26.6,21.2,80,29.57,10.0,WNW,17.3,21.9,N/A,,Overcast,300,2012-11-11 09:10:00
3:53 AM,25.0,19.9,81,29.64,10.0,West,17.3,23.0,N/A,,Overcast,280,2012-11-11 09:53:00
4:17 AM,24.8,19.4,80,29.61,10.0,WNW,16.1,-,0.00,Snow,Light Snow,290,2012-11-11 10:17:00
4:53 AM,24.1,19.9,84,29.66,10.0,WNW,13.8,-,0.00,,Overcast,290,2012-11-11 10:53:00
5:27 AM,23.0,19.4,86,29.64,1.8,West,13.8,-,0.00,Snow,Light Snow,280,2012-11-11 11:27:00
5:53 AM,23.0,19.4,86,29.65,1.2,West,13.8,-,N/A,Snow,Light Snow,280,2012-11-11 11:53:00
6:16 AM,23.0,19.4,86,29.66,3.0,West,13.8,-,0.01,Snow,Light Snow,280,2012-11-11 12:16:00
6:53 AM,23.0,19.0,85,29.70,7.0,West,11.5,-,0.01,,Overcast,280,2012-11-11 12:53:00
7:53 AM,23.0,19.0,85,29.72,6.0,West,11.5,-,0.00,Snow,Light Snow,270,2012-11-11 13:53:00
8:53 AM,23.0,18.0,81,29.73,10.0,West,11.5,-,0.00,,Scattered Clouds,270,2012-11-11 14:53:00
9:53 AM,23.0,17.1,78,29.73,10.0,West,17.3,-,N/A,,Scattered Clouds,270,2012-11-11 15:53:00
10:31 AM,23.0,17.6,80,29.70,10.0,WSW,19.6,-,N/A,,Overcast,250,2012-11-11 16:31:00
10:53 AM,23.0,18.0,81,29.74,10.0,WSW,15.0,-,N/A,,Overcast,250,2012-11-11 16:53:00
11:53 AM,23.0,17.6,80,29.70,10.0,West,16.1,-,N/A,,Overcast,260,2012-11-11 17:53:00
12:53 PM,24.1,17.1,75,29.75,10.0,West,16.1,-,N/A,,Overcast,270,2012-11-11 18:53:00
1:53 PM,23.0,17.1,78,29.75,10.0,West,16.1,-,N/A,,Overcast,260,2012-11-11 19:53:00
2:53 PM,23.0,18.0,81,29.76,10.0,West,13.8,-,N/A,,Overcast,270,2012-11-11 20:53:00
3:53 PM,21.9,17.1,82,29.78,10.0,West,10.4,-,N/A,,Overcast,280,2012-11-11 21:53:00
4:53 PM,21.0,14.0,74,29.78,10.0,West,13.8,-,N/A,,Overcast,280,2012-11-11 22:53:00
5:24 PM,21.2,14.0,74,29.74,10.0,West,15.0,-,N/A,,Overcast,280,2012-11-11 23:24:00
5:53 PM,19.9,14.0,78,29.80,10.0,West,11.5,-,N/A,,Overcast,280,2012-11-11 23:53:00
6:53 PM,19.9,15.1,81,29.80,10.0,West,11.5,-,0.00,Snow,Light Snow,270,2012-11-12 00:53:00
7:32 PM,19.4,15.8,86,29.75,7.0,West,11.5,-,0.00,Snow,Light Snow,280,2012-11-12 01:32:00
7:53 PM,19.9,15.1,81,29.81,6.0,WNW,11.5,-,0.00,Snow,Light Snow,290,2012-11-12 01:53:00
8:26 PM,19.4,12.2,74,29.76,10.0,WNW,15.0,-,0.00,,Overcast,290,2012-11-12 02:26:00
8:53 PM,18.0,12.0,78,29.81,10.0,WNW,10.4,-,0.00,,Overcast,290,2012-11-12 02:53:00
9:53 PM,17.1,10.9,77,29.82,10.0,West,9.2,-,N/A,,Overcast,280,2012-11-12 03:53:00
10:53 PM,18.0,12.9,81,29.82,10.0,West,11.5,-,N/A,,Overcast,280,2012-11-12 04:53:00
11:53 PM,18.0,12.9,81,29.82,10.0,WNW,10.4,-,N/A,,Overcast,290,2012-11-12 05:53:00